www.pogodaiklimat.ru
ПОГОДА в Абасири
Время
(UTC), дата
22 8.10
23 8.10
00 9.10
01 9.10
02 9.10
03 9.10
04 9.10
05 9.10
06 9.10
07 9.10
08 9.10
09 9.10
10 9.10
11 9.10
12 9.10
13 9.10
14 9.10
15 9.10
17 9.10
18 9.10
19 9.10
20 9.10
21 9.10
22 9.10
23 9.10
00 10.10
01 10.10
02 10.10
03 10.10
04 10.10
05 10.10
06 10.10
07 10.10
08 10.10
09 10.10
10 10.10
11 10.10
12 10.10
13 10.10
14 10.10
15 10.10
16 10.10
17 10.10
18 10.10
19 10.10
20 10.10
21 10.10
22 10.10
23 10.10
00 11.10
01 11.10
02 11.10
03 11.10
04 11.10
05 11.10
06 11.10
07 11.10
08 11.10
09 11.10
10 11.10
11 11.10
12 11.10
13 11.10
14 11.10
15 11.10
16 11.10
17 11.10
18 11.10
19 11.10
20 11.10
21 11.10
22 11.10
23 11.10
00 12.10
01 12.10
02 12.10
03 12.10
04 12.10
05 12.10
06 12.10
07 12.10
08 12.10
09 12.10
10 12.10
11 12.10
12 12.10
13 12.10
14 12.10
15 12.10
16 12.10
17 12.10
18 12.10
19 12.10
20 12.10
21 12.10
22 12.10
23 12.10
00 13.10
01 13.10
02 13.10
03 13.10
04 13.10
05 13.10
06 13.10
07 13.10
08 13.10
09 13.10
10 13.10
11 13.10
12 13.10
13 13.10
14 13.10
15 13.10
16 13.10
17 13.10
18 13.10
19 13.10
20 13.10
21 13.10
22 13.10
23 13.10
00 14.10
01 14.10
02 14.10
03 14.10
04 14.10
05 14.10
06 14.10
07 14.10
08 14.10
09 14.10
10 14.10
11 14.10
12 14.10
13 14.10
14 14.10
15 14.10
16 14.10
17 14.10
18 14.10
19 14.10
20 14.10
21 14.10
22 14.10
23 14.10
00 15.10
01 15.10
02 15.10
03 15.10
04 15.10
05 15.10
06 15.10
07 15.10
08 15.10
09 15.10
10 15.10
11 15.10
12 15.10
13 15.10
14 15.10
15 15.10
16 15.10
17 15.10
18 15.10
19 15.10
20 15.10
Ветер
(напр.,м/с)
Видим. Явления Облачность Т
(С)
Тd
(С)
f
(%)
Тe
(С)
Тes
(С)
Комфортность P
(гПа)
Po
(гПа)
Тmin
(С)
Tmax
(С)
R
(мм)
R24
(мм)
S
(см)
Ю 7 н/о н/о +11.5 +2.0 52 +9 +9 тепло 996.9 991.7
Ю 7 н/о н/о +13.3 +1.6 45 +11 +11 тепло 996.2 991.1
ЮЗ 8 20 км слаб. ливневой дождь 9/9
[Cu med, cong]
+13.4 +4.3 54 +11 +11 тепло 996.0 990.9 +10.9 0.0
ЮЗ 6 н/о н/о +10.8 +6.6 75 +8 +8 тепло 997.1 991.9
ЮЗ 8 н/о н/о +13.0 +5.4 60 +10 +10 тепло 997.5 992.4
ЮЗ 7 30 км {ливн. осадки} 9/3
[Cu med, cong Ac As]
+13.5 +5.2 57 +11 +12 тепло 998.3 993.2
З 5 н/о н/о +14.6 +6.2 57 +13 +13 тепло 999.2 994.1
З 5 н/о н/о +15.9 +6.9 55 +15 +15 тепло 1000.4 995.3
З 6 30 км {ливн. осадки} 6/5
[Cu med, cong Ac trans]
+16.1 +8.1 59 +15 +15 тепло 1001.8 996.7 0.5
З 9 н/о н/о +16.1 +6.5 53 +14 +14 тепло 1003.3 998.2
З 6 н/о н/о +15.0 +6.3 56 +14 +14 тепло 1005.4 1000.3
З 2 20 км 1/1
[Cu med, cong]
+13.9 +6.0 59 +14 +14 тепло 1007.4 1002.2
Ю 3 н/о н/о +13.2 +6.8 65 +12 +12 тепло 1008.8 1003.6
З 1 н/о н/о +11.8 +6.7 71 +12 +12 тепло 1010.5 1005.3
З 2 20 км ясно +11.8 +5.9 67 +11 +11 тепло 1011.5 1006.3 +16.6 0.5
З 2 н/о н/о +11.1 +5.4 68 +10 +10 тепло 1012.9 1007.6
З 4 н/о н/о +11.5 +6.0 69 +9 +9 тепло 1013.7 1008.4
ЮЗ 2 н/о н/о +11.2 +5.5 68 +10 +10 тепло 1014.5 1009.2
ЮЗ 2 н/о н/о +9.5 +5.5 76 +8 +8 тепло 1015.8 1010.5
С 1 20 км ясно +8.6 +5.5 81 +8 +8 тепло 1016.4 1011.1
З 3 н/о н/о +8.9 +5.3 78 +6 +6 тепло 1017.0 1011.7
ЮЗ 5 н/о н/о +10.0 +4.2 67 +7 +7 тепло 1017.3 1012.0
ЮЗ 4 30 км 1/0
[Ac trans]
+10.1 +3.4 63 +8 +8 тепло 1017.6 1012.3
ЮЗ 4 н/о н/о +11.2 +3.5 59 +9 +9 тепло 1017.9 1012.6
ЮЗ 3 н/о н/о +14.0 +3.2 48 +13 +13 тепло 1018.4 1013.2
Ю 2 30 км 1/0
[Ac trans]
+15.5 +4.9 49 +16 +21 тепло 1018.5 1013.3 +7.8
ЮВ 2 н/о н/о +16.4 +6.5 52 +17 +17 тепло 1018.1 1012.9
ЮВ 2 н/о н/о +17.6 +7.9 53 +18 +18 тепло 1018.1 1012.9
ЮВ 2 50 км 1/1
[Cu hum Ac trans]
+18.6 +6.8 46 +19 +26 тепло 1017.6 1012.5
ЮВ 3 н/о н/о +18.4 +6.0 44 +19 +19 тепло 1017.1 1012.0
ЮВ 2 н/о н/о +18.9 +8.0 49 +20 +20 тепло 1017.2 1012.1
ЮВ 2 40 км ясно +17.8 +8.9 56 +19 +21 тепло 1017.2 1012.1
Ю 1 н/о н/о +17.4 +10.3 63 +18 +18 тепло 1017.4 1012.2
Ю 3 н/о н/о +16.7 +9.6 63 +16 +16 тепло 1017.6 1012.4
Ю 4 30 км 1/0
[Ac trans Ci fib]
+15.7 +8.0 60 +15 +15 тепло 1018.2 1013.0
Ю 3 н/о н/о +14.9 +7.5 61 +14 +14 тепло 1018.5 1013.3
Ю 2 н/о н/о +13.6 +7.6 67 +13 +13 тепло 1018.6 1013.4
ЮВ 1 20 км 8/0
[Ac trans Ci sp]
+12.7 +8.2 74 +13 +13 тепло 1018.7 1013.4 +19.1
ЮЗ 1 н/о н/о +12.5 +8.0 74 +13 +13 тепло 1018.5 1013.2
ЮЗ 4 н/о н/о +13.3 +7.3 67 +12 +12 тепло 1018.6 1013.4
ЮВ 3 н/о н/о +12.7 +8.0 73 +12 +12 тепло 1017.8 1012.5
Ю 4 н/о н/о +12.1 +6.4 68 +10 +10 тепло 1017.7 1012.4
Ю 3 н/о н/о +11.6 +7.5 76 +10 +10 тепло 1017.1 1011.8
ЮЗ 5 20 км 10/0
[Ac As]
+13.4 +8.9 74 +12 +12 тепло 1016.7 1011.5
ЮЗ 4 н/о н/о +13.3 +8.4 72 +12 +12 тепло 1017.6 1012.4
Ю 5 н/о н/о +13.3 +6.2 62 +12 +12 тепло 1017.4 1012.2
ЮЗ 3 20 км 9/0
[Ac As Ci sp]
+12.3 +6.8 69 +11 +11 тепло 1017.6 1012.3
З 1 н/о н/о +13.6 +5.8 59 +14 +14 тепло 1017.9 1012.7
ЮЗ 4 н/о н/о +15.2 +7.3 59 +14 +14 тепло 1017.9 1012.7
Ю 2 30 км 9/0
[Ac trans Ci sp]
+16.8 +8.5 58 +17 +20 тепло 1017.2 1012.0 +11.1
ЮЗ 4 н/о н/о +19.3 +10.1 55 +20 +20 тепло 1017.2 1012.1
СВ 1 н/о н/о +18.7 +11.3 62 +20 +20 тепло 1016.7 1011.6
С 2 30 км 9/1
[St Ac As Ci sp]
+19.1 +11.9 63 +21 +24 комфорт 1015.7 1010.6
ЮВ 2 н/о н/о +19.1 +11.9 63 +21 +21 комфорт 1015.3 1010.2
СЗ 2 н/о н/о +18.3 +13.2 72 +19 +19 тепло 1015.1 1010.0
С 2 25 км 9/1
[Cu hum Ac As Ci sp]
+17.7 +13.6 77 +18 +20 тепло 1015.1 1010.0
Ю 2 н/о н/о +18.5 +14.0 75 +20 +20 тепло 1015.3 1010.2
Ю 3 н/о н/о +18.2 +14.5 79 +19 +19 тепло 1015.6 1010.5
Ю 2 20 км 9/0
[Ac As]
+17.9 +14.2 79 +18 +18 тепло 1015.9 1010.8
Ю 2 н/о н/о +18.0 +14.1 78 +19 +19 тепло 1015.9 1010.8
Ю 2 н/о н/о +17.1 +14.4 84 +18 +18 тепло 1016.0 1010.8
Ю 1 20 км 10/0
[Ac As]
+16.6 +14.6 88 +18 +18 тепло 1016.1 1010.9 +20.1
СВ 1 н/о н/о +16.4 +14.4 88 +17 +17 тепло 1016.3 1011.1
СЗ 2 н/о н/о +15.7 +14.2 91 +16 +16 тепло 1016.4 1011.2
З 2 н/о н/о +16.0 +13.1 83 +16 +16 тепло 1016.5 1011.3
СЗ 3 н/о н/о +16.1 +11.7 75 +16 +16 тепло 1016.7 1011.5
З 2 н/о н/о +15.5 +11.9 79 +15 +15 тепло 1016.9 1011.7
СЗ 3 20 км 9/0
[Ac trans Ci sp]
+15.5 +12.3 81 +15 +15 тепло 1017.5 1012.3
СЗ 3 н/о н/о +15.4 +11.6 78 +15 +15 тепло 1018.3 1013.1
С 3 н/о н/о +15.1 +12.4 84 +14 +14 тепло 1018.6 1013.4
С 5 20 км 9/9
[Cu med, cong]
+13.8 +11.0 83 +12 +12 тепло 1019.3 1014.1
СЗ 4 н/о н/о +13.2 +7.4 68 +12 +12 тепло 1021.0 1015.7
С 6 н/о н/о +13.2 +8.5 73 +11 +11 тепло 1021.8 1016.5
С 5 20 км 10/10
[Cu med, cong]
+13.0 +8.1 72 +11 +11 тепло 1022.0 1016.7 +12.9
С 3 н/о н/о +13.0 +6.1 63 +12 +12 тепло 1022.9 1017.6
С 3 н/о н/о +13.1 +6.7 65 +12 +12 тепло 1022.9 1017.6
С 4 20 км 9/9
[Cu med, cong Ac As]
+12.7 +7.0 68 +11 +12 тепло 1022.9 1017.6
С 4 н/о н/о +12.3 +6.4 67 +11 +11 тепло 1021.4 1016.1
С 4 н/о н/о +12.0 +6.3 68 +10 +10 тепло 1021.4 1016.1
С 4 20 км 10/6
[Cu med, cong Ac As]
+11.8 +6.1 68 +10 +10 тепло 1021.8 1016.5
С 5 н/о н/о +11.2 +5.5 68 +9 +9 тепло 1021.6 1016.3
С 4 н/о н/о +10.9 +4.4 64 +9 +9 тепло 1021.4 1016.1
С 3 20 км 10/4
[Cu med, cong Ac As]
+11.0 +5.1 67 +9 +9 тепло 1021.7 1016.4
С 3 н/о н/о +11.1 +6.3 72 +10 +10 тепло 1022.4 1017.1
С 2 н/о н/о +10.9 +5.9 71 +10 +10 тепло 1022.3 1017.0
С 3 20 км 10/5
[Cu med, cong Ac As]
+10.9 +5.7 70 +9 +9 тепло 1021.0 1015.7 +13.2
СВ 4 н/о н/о +10.7 +5.5 70 +9 +9 тепло 1020.5 1015.2
СВ 4 н/о н/о +10.5 +4.9 68 +8 +8 тепло 1019.7 1014.4
СВ 4 н/о н/о +10.4 +4.6 67 +8 +8 тепло 1018.9 1013.6
СВ 5 н/о н/о +10.1 +4.5 68 +7 +7 тепло 1018.4 1013.1
СВ 6 н/о н/о +9.9 +4.5 69 +7 +7 тепло 1017.6 1012.3
СВ 5 15 км слаб. ливневой дождь 10/10
[Cu med, cong]
+9.1 +4.5 73 +6 +6 тепло 1017.3 1012.0 0.0
СВ 5 н/о н/о +8.6 +4.8 77 +5 +5 тепло 1016.3 1011.0
СВ 5 н/о н/о +8.2 +4.4 77 +5 +5 тепло 1015.7 1010.4
СВ 6 6000 м ливневой дождь 10/10
[Cu med, cong]
+7.9 +5.0 82 +4 +4 по сезону 1015.1 1009.8
С 7 н/о н/о +7.6 +4.4 80 +3 +3 по сезону 1014.2 1008.9
СВ 5 н/о н/о +7.5 +5.5 87 +3 +3 по сезону 1013.6 1008.3
СВ 7 15 км слаб. ливневой дождь 10/10
[Cu med, cong]
+8.3 +4.9 79 +4 +4 по сезону 1013.0 1007.7 +7.3 21
С 9 н/о н/о +9.2 +3.2 66 +5 +5 тепло 1012.7 1007.4
С 9 н/о н/о +9.4 +2.7 63 +5 +5 тепло 1012.3 1007.0
С 9 20 км {ливн. осадки} 9/6
[Cu med, cong Ac As Ci sp]
+10.0 +2.4 59 +6 +6 тепло 1012.3 1007.0
С 9 н/о н/о +10.1 +2.7 60 +6 +6 тепло 1012.6 1007.3
С 9 н/о н/о +9.9 +2.0 58 +6 +6 тепло 1013.8 1008.5
С 9 20 км {ливн. осадки} 6/6
[Cu med, cong]
+10.0 +2.4 59 +6 +6 тепло 1015.3 1010.0 0.0
С 8 н/о н/о +9.1 +1.0 57 +5 +5 тепло 1016.5 1011.2
С 7 н/о н/о +8.6 -1.0 51 +5 +5 тепло 1017.7 1012.4
С 7 20 км 9/9
[Cu med, cong]
+8.5 -0.5 53 +5 +5 тепло 1019.0 1013.7
СЗ 6 н/о н/о +8.5 -0.3 54 +5 +5 тепло 1020.6 1015.2
СЗ 3 н/о н/о +8.0 -0.2 56 +6 +6 тепло 1021.5 1016.1
СЗ 2 20 км 8/8
[Cu med, cong]
+7.2 +0.2 61 +5 +5 тепло 1022.0 1016.6 +10.9 0.0
З 3 н/о н/о +6.3 +0.4 66 +4 +4 по сезону 1022.1 1016.7
З 3 н/о н/о +6.0 +0.4 67 +3 +3 по сезону 1022.2 1016.8
З 4 н/о н/о +6.3 +0.2 65 +3 +3 по сезону 1023.2 1017.8
З 4 н/о н/о +5.8 -0.2 65 +2 +2 по сезону 1023.8 1018.4
З 4 н/о н/о +5.0 -0.6 67 +1 +1 по сезону 1023.6 1018.2
З 4 20 км 1/1
[Cu hum]
+4.4 -1.2 67 +1 +1 по сезону 1024.0 1018.5
ЮЗ 4 н/о н/о +4.0 -1.8 66 0 0 по сезону 1024.2 1018.7
З 4 н/о н/о +3.5 -1.8 68 -1 -1 по сезону 1024.4 1018.9
ЮЗ 4 30 км 1/1
[Cu hum]
+4.5 -1.9 63 +1 +1 по сезону 1024.4 1018.9
ЮЗ 4 н/о н/о +5.7 -1.7 59 +2 +2 по сезону 1024.6 1019.2
ЮЗ 4 н/о н/о +8.6 -2.4 46 +6 +6 тепло 1024.6 1019.2
ЮЗ 4 30 км 9/1
[Cu med, cong Ac As Ci sp]
+9.1 -2.2 45 +7 +8 тепло 1024.7 1019.3 +3.5
ЮЗ 3 н/о н/о +10.1 -2.2 42 +8 +8 тепло 1023.3 1018.0
ЮЗ 3 н/о н/о +11.4 -0.4 44 +10 +10 тепло 1022.6 1017.3
ЮВ 3 40 км 9/1
[Cu hum Ac trans Ci sp]
+11.7 -1.1 41 +10 +13 тепло 1021.6 1016.3
ЮВ 3 н/о н/о +13.1 +0.5 42 +12 +12 тепло 1020.5 1015.2
В 2 н/о н/о +13.1 +1.5 45 +13 +13 тепло 1020.0 1014.7
ЮВ 3 30 км 8/3
[Cu med, cong Ac trans Ci fib]
+12.7 +3.4 53 +12 +13 тепло 1019.5 1014.2
ЮЗ 3 н/о н/о +13.0 +3.9 54 +12 +12 тепло 1019.3 1014.0
Ю 2 н/о н/о +11.2 +5.1 66 +10 +10 тепло 1018.8 1013.5
Ю 2 20 км 9/3
[Cu med, cong Ac trans Ci sp]
+10.1 +5.3 72 +9 +9 тепло 1018.7 1013.4
ЮВ 2 н/о н/о +10.1 +6.1 76 +9 +9 тепло 1017.9 1012.6
Ю 1 н/о н/о +10.4 +6.2 75 +10 +10 тепло 1017.5 1012.2
З 4 15 км слаб. ливневой дождь 10/10
[Cu med, cong]
+10.6 +6.6 76 +8 +8 тепло 1017.4 1012.1 +13.8 0.0
С 5 н/о н/о +9.6 +7.9 89 +6 +6 тепло 1017.4 1012.1
СЗ 4 н/о н/о +9.2 +7.7 90 +6 +6 тепло 1017.5 1012.2
З 3 н/о н/о +8.4 +7.0 91 +6 +6 тепло 1017.3 1012.0
З 3 н/о н/о +8.1 +6.4 89 +6 +6 тепло 1017.6 1012.3
С 6 н/о н/о +7.2 +5.2 87 +3 +3 по сезону 1017.9 1012.5
СЗ 5 15 км слаб. ливневой дождь 9/9
[Cu med, cong Ac As]
+7.3 +3.9 79 +3 +3 по сезону 1018.2 1012.8 5
З 4 н/о н/о +6.0 +3.9 86 +2 +2 по сезону 1018.4 1013.0
З 3 н/о н/о +5.1 +1.9 80 +2 +2 по сезону 1018.9 1013.5
З 5 20 км {ливн. осадки} 3/3
[Cu med, cong Ac trans]
+5.5 +0.5 70 +1 +1 по сезону 1019.2 1013.8
СЗ 4 н/о н/о +6.3 +2.8 78 +3 +3 по сезону 1020.5 1015.1
З 4 н/о н/о +5.6 +3.1 84 +2 +2 по сезону 1021.3 1015.9
З 3 20 км в посл. час ливневой дождь 8/8
[Cu med, cong Ac As]
+6.9 +2.0 71 +4 +5 по сезону 1021.8 1016.4 +5.1 7
СЗ 5 н/о н/о +9.1 -1.9 46 +6 +6 тепло 1021.6 1016.3
СЗ 5 н/о н/о +9.0 -1.4 48 +6 +6 тепло 1022.0 1016.7
СЗ 5 40 км 8/8
[Cu med, cong]
+10.1 -1.0 46 +7 +8 тепло 1021.8 1016.5
СЗ 5 н/о н/о +10.7 -1.0 44 +8 +8 тепло 1021.5 1016.2
С 4 н/о н/о +10.5 -0.6 46 +9 +9 тепло 1021.7 1016.4
С 3 40 км 1/1
[Cu hum Ac trans]
+10.3 +1.9 56 +9 +10 тепло 1021.7 1016.4
СЗ 2 н/о н/о +10.2 -0.3 48 +10 +10 тепло 1021.8 1016.5
Ю 2 н/о н/о +8.8 +1.5 60 +8 +8 тепло 1022.1 1016.7
Ю 4 30 км 1/1
[Cu hum]
+7.2 +1.7 68 +4 +4 по сезону 1022.8 1017.4
Ю 4 н/о н/о +6.8 +0.5 64 +4 +4 по сезону 1023.0 1017.6
ЮЗ 3 н/о н/о +6.8 +0.5 64 +4 +4 по сезону 1023.2 1017.8
З 3 20 км 1/1
[Cu hum]
+5.4 +0.4 70 +3 +3 по сезону 1023.7 1018.3 +11.2
ЮЗ 2 н/о н/о +5.7 -0.8 63 +4 +4 по сезону 1023.7 1018.3
ЮЗ 3 н/о н/о +4.8 +0.2 72 +2 +2 по сезону 1023.4 1018.0
З 3 н/о н/о +4.0 +0.5 78 +1 +1 по сезону 1023.6 1018.1
З 3 н/о н/о +4.1 +0.1 75 +1 +1 по сезону 1023.5 1018.0
Ю 2 н/о н/о +3.6 -0.2 76 +1 +1 по сезону 1023.4 1017.9
ЮЗ 3 20 км 1/1
[Sc]
+3.7 -1.4 69 +1 +1 по сезону 1022.9 1017.4
ЮЗ 4 н/о н/о +4.0 -1.8 66 0 0 по сезону 1022.3 1016.8
ЮЗ 4 н/о н/о +4.3 -2.1 63 +1 +1 по сезону 1021.7 1016.3
Местоположение метеостанции Абасири (Япония): широта 44.02 долгота 144.28 высота над уровнем моря 43 м.
В архиве по умолчанию представлена погода в Абасири за последнюю неделю. Архивные данные за месяц целиком и за предыдущие месяцы, начиная с января 2011 года, Вы можете получить, выбрав интересующий диапазон дат из раскрывающегося списка и нажав кнопку "Найти!".
*Определитесь, кто Вы:
Внимание! Время в таблицах - всемирное. Для получения местного времени необходимо прибавить поправку, которая равна 9 ч.
Смотрите также архив погоды в соседних городах и на ближайших метеорологических станциях:
Партнеры нашего сайта:      
Пояснения к столбцам:
  • Ветер - указаны скорость ветра в м/с - средняя за 10 мин, порывы в срок и между сроками (в фигурных скобках) и направление, откуда дует ветер: С - северный,
  • СВ - северо-восточный, В - восточный, ЮВ - юго-восточный, Ю - южный, ЮЗ - юго-западный, З - западный, СЗ - северо-западный.
  • Видимость - горизонтальная дальность видимости в метрах или километрах. При видимости от 1 до 10 км при отсутствии осадков обычно наблюдается дымка, при ухудшении видимости до 1 км и менее - туман. В сухую погоду видимость может ухудшаться дымом, пылью или мглою.
  • Явления - указаны атмосферные явления, наблюдавшиеся в срок или в последний час перед сроком; фигурными скобками обозначены явления, наблюдавшиеся между сроками (за 1-3 часа до срока); квадратными скобками обозначены град или гололедные отложения с указанием их диаметра в мм.
  • Облачность - указаны через наклонную черту общая и нижняя облачность в баллах и высота нижней границы облаков в метрах; квадратными скобками обозначены формы облаков: Ci - перистые, Cs - перисто-слоистые, Cc - перисто-кучевые, Ac - высококучевые, As - высокослоистые, Sc - слоисто-кучевые, Ns - слоисто-дождевые, Cu - кучевые, Cb - кучево-дождевые. Подробнее классификацию облаков см. в Атласе облаков (PDF).
  • T - Температура воздуха - температура, измеренная на высоте 2 м над землей.
  • Td - Температура точки росы - температура, при понижении до которой содержащийся в воздухе водяной пар достигнет насыщения.
  • f - Относительная влажность воздуха - влажноcть воздуха, измеренная на высоте 2 м над землей.
  • Te - Эффективная температура - температура, которую ощущает одетый по сезону человек в тени. Характеристика душности погоды. При расчете учитывается влияние влажности воздуха и скорости ветра на теплоощущения человека.
  • Tes - Эффективная температура на солнце - температура, которую ощущает человек, с поправкой на солнечный нагрев. Характеристика знойности погоды. Зависит от высоты солнца над горизонтом, облачности и скорости ветра. Ночью, в пасмурную погоду, а также при ветре 12 м/с и более поправка равна нулю.
  • P - Атмосферное давление - приведенное к уровню моря атмосферное давление.
  • Po - Атмосферное давление - измеренное на уровне метеостанции атмосферное давление.
  • Tmin - Минимальная температура - минимум температуры воздуха на высоте 2 м над землей.
  • Tmax - Максимальная температура - максимум температуры воздуха на высоте 2 м над землей.
  • R - Количество осадков - Количество выпавших осадков за период времени, мм. При наведении курсора мыши на число - период времени, за который выпало указанное количество осадков.
  • R24 - Количество осадков - Количество выпавших осадков за 24 часа, мм.
  • S - Снежный покров - Высота снежного покрова, см. При наведении курсора мыши на число - состояние снежного покрова и степень покрытия местности в баллах.